Wilton, MN

7:43 PM CDT on August 28, 2016 (GMT -0500)
Bemidji-Beltrami County

Weather History for KBJI - October, 2011

Change the Weather History Date:

Monday, October 10, 2011

  Actual Average Record
Temperature  
Mean Temperature 56 °F -  
Max Temperature 62 °F 53 °F 84 °F (1955)
Min Temperature 50 °F 35 °F 19 °F (1956)
Degree Days  
Heating Degree Days 9    
Growing Degree Days 6 (Base 50)    
Moisture  
Dew Point 51 °F    
Average Humidity 83    
Maximum Humidity 100    
Minimum Humidity 59    
Precipitation  
Precipitation 0.04 in - - ()
Sea Level Pressure  
Sea Level Pressure 29.93 in    
Wind  
Wind Speed 11 mph (SE)    
Max Wind Speed 17 mph    
Max Gust Speed 23 mph    
Visibility 9 miles    
Events Rain    
Averages and records for this station are not official NWS values.
T = Trace of Precipitation, MM = Missing Value Source: NWS Daily Summary

Daily Weather History Graph

Daily Weather History Graph

Search for Another Location

Airport or City:

Trip Planner

Search our weather history database for the weather conditions in past years. The results will help you decide how hot, cold, wet, or windy it might be!

Date:

Astronomy

Oct. 10, 2011 Rise Set
Actual Time 7:30 AM CDT 6:41 PM CDT
Civil Twilight 7:00 AM CDT 7:12 PM CDT
Nautical Twilight 6:24 AM CDT 7:48 PM CDT
Astronomical Twilight 5:48 AM CDT 8:23 PM CDT
Moon 5:45 PM CDT (10/10) 6:11 AM CDT (10/10)
Length of Visible Light 12h 12m
Length of Day
11h 10m
Waxing Gibbous, 98% of the Moon is Illuminated
Oct 10
Waxing Gibbous
Oct 11
Full
Oct 19
Last Quarter
Oct 26
New
Nov 2
First Quarter

Hourly Weather History & Observations

Time (CDT) Temp. Dew Point Humidity Pressure Visibility Wind Dir Wind Speed Gust Speed Precip Events Conditions
12:15 AM 53.6 °F 51.8 °F 94% 30.09 in 10.0 mi ESE 9.2 mph - N/A   Clear
12:35 AM 53.6 °F 51.8 °F 94% 30.09 in 10.0 mi ESE 10.4 mph - N/A   Clear
12:55 AM 53.6 °F 50.0 °F 88% 30.08 in 10.0 mi ESE 10.4 mph - N/A   Clear
1:15 AM 53.6 °F 50.0 °F 88% 30.07 in 10.0 mi ESE 11.5 mph - N/A   Clear
1:35 AM 53.6 °F 50.0 °F 88% 30.07 in 10.0 mi ESE 12.7 mph - N/A   Clear
2:15 AM 51.8 °F 48.2 °F 88% 30.07 in 10.0 mi ESE 11.5 mph - N/A   Clear
2:55 AM 51.8 °F 48.2 °F 88% 30.06 in 10.0 mi ESE 9.2 mph - N/A   Clear
3:15 AM 51.8 °F 46.4 °F 82% 30.05 in 10.0 mi ESE 9.2 mph - N/A   Clear
3:35 AM 51.8 °F 46.4 °F 82% 30.05 in 10.0 mi ESE 9.2 mph - N/A   Clear
3:55 AM 51.8 °F 46.4 °F 82% 30.04 in 10.0 mi ESE 8.1 mph - N/A   Clear
4:15 AM 51.8 °F 46.4 °F 82% 30.03 in 10.0 mi ESE 8.1 mph - N/A   Clear
4:55 AM 51.8 °F 48.2 °F 88% 30.02 in 10.0 mi ESE 10.4 mph - N/A   Clear
5:35 AM 51.8 °F 48.2 °F 88% 30.02 in 10.0 mi ESE 11.5 mph - N/A   Clear
6:35 AM 50.0 °F 48.2 °F 94% 30.00 in 10.0 mi ESE 8.1 mph - N/A   Clear
7:15 AM 50.0 °F 50.0 °F 100% 29.99 in 10.0 mi ESE 10.4 mph - N/A   Clear
7:35 AM 51.8 °F 50.0 °F 94% 29.98 in 10.0 mi ESE 10.4 mph - N/A   Clear
8:15 AM 51.8 °F 50.0 °F 94% 29.98 in 10.0 mi SE 12.7 mph - N/A   Clear
8:35 AM 53.6 °F 50.0 °F 88% 29.97 in 10.0 mi SE 12.7 mph - N/A   Clear
8:55 AM 53.6 °F 50.0 °F 88% 29.97 in 7.0 mi SE 13.8 mph - N/A   Clear
9:15 AM 55.4 °F 50.0 °F 82% 29.96 in 7.0 mi SE 15.0 mph - N/A   Clear
9:35 AM 57.2 °F 50.0 °F 77% 29.95 in 7.0 mi SE 13.8 mph 19.6 mph N/A   Clear
9:55 AM 59.0 °F 50.0 °F 72% 29.95 in 7.0 mi SE 16.1 mph - N/A   Clear
10:15 AM 59.0 °F 50.0 °F 72% 29.94 in 7.0 mi SE 13.8 mph - N/A   Clear
10:35 AM 60.8 °F 50.0 °F 68% 29.94 in 7.0 mi SE 11.5 mph - N/A   Clear
10:55 AM 60.8 °F 50.0 °F 68% 29.93 in 7.0 mi SE 12.7 mph - N/A   Clear
11:15 AM 60.8 °F 50.0 °F 68% 29.93 in 7.0 mi SE 13.8 mph 18.4 mph N/A   Clear
11:35 AM 60.8 °F 50.0 °F 68% 29.93 in 7.0 mi SE 11.5 mph 17.3 mph N/A   Clear
11:55 AM 62.6 °F 48.2 °F 59% 29.92 in 10.0 mi SSE 16.1 mph 19.6 mph N/A   Clear
12:15 PM 62.6 °F 50.0 °F 63% 29.92 in 10.0 mi SSE 17.3 mph 23.0 mph N/A   Scattered Clouds
12:35 PM 62.6 °F 50.0 °F 63% 29.92 in 7.0 mi South 11.5 mph - N/A   Mostly Cloudy
12:55 PM 62.6 °F 50.0 °F 63% 29.92 in 7.0 mi South 15.0 mph 23.0 mph N/A   Overcast
1:15 PM 62.6 °F 50.0 °F 63% 29.90 in 7.0 mi South 12.7 mph 18.4 mph N/A   Mostly Cloudy
1:35 PM 62.6 °F 50.0 °F 63% 29.90 in 10.0 mi South 11.5 mph - N/A   Overcast
1:55 PM 60.8 °F 50.0 °F 68% 29.90 in 7.0 mi South 16.1 mph 19.6 mph N/A Rain Light Rain
2:15 PM 60.8 °F 50.0 °F 68% 29.89 in 7.0 mi South 13.8 mph 17.3 mph N/A   Light Drizzle
2:35 PM 59.0 °F 51.8 °F 77% 29.89 in 5.0 mi South 11.5 mph 18.4 mph 0.01 in Rain Rain
2:55 PM 55.4 °F 53.6 °F 94% 29.88 in 10.0 mi South 11.5 mph - 0.02 in Rain Rain
3:15 PM 55.4 °F 53.6 °F 94% 29.87 in 7.0 mi SSE 8.1 mph - 0.02 in Rain Rain
3:35 PM 55.4 °F 53.6 °F 94% 29.87 in 10.0 mi SSE 12.7 mph - 0.02 in Rain Light Rain
3:55 PM 55.4 °F 55.4 °F 100% 29.86 in 10.0 mi SSE 10.4 mph - 0.02 in Rain Light Rain
4:15 PM 59.0 °F 55.4 °F 88% 29.85 in 10.0 mi SSE 15.0 mph 21.9 mph N/A   Overcast
4:35 PM 59.0 °F 53.6 °F 82% 29.85 in 10.0 mi South 13.8 mph 23.0 mph N/A   Overcast
4:55 PM 59.0 °F 53.6 °F 82% 29.84 in 10.0 mi SSE 13.8 mph 21.9 mph N/A   Overcast
5:15 PM 59.0 °F 51.8 °F 77% 29.84 in 10.0 mi SSE 16.1 mph 23.0 mph N/A   Overcast
5:35 PM 57.2 °F 51.8 °F 82% 29.82 in 7.0 mi SSE 15.0 mph 18.4 mph N/A   Overcast
5:55 PM 57.2 °F 51.8 °F 82% 29.83 in 7.0 mi SSE 11.5 mph 19.6 mph N/A   Overcast
6:15 PM 57.2 °F 51.8 °F 82% 29.83 in 10.0 mi South 11.5 mph 17.3 mph N/A   Overcast
6:35 PM 55.4 °F 51.8 °F 88% 29.82 in 7.0 mi South 10.4 mph - N/A   Mostly Cloudy
6:55 PM 55.4 °F 51.8 °F 88% 29.82 in 10.0 mi SSE 13.8 mph 20.7 mph N/A   Scattered Clouds
7:15 PM 55.4 °F 51.8 °F 88% 29.83 in 10.0 mi SSE 10.4 mph - N/A   Overcast
7:35 PM 55.4 °F 51.8 °F 88% 29.82 in 7.0 mi SSE 10.4 mph 16.1 mph N/A   Overcast
7:55 PM 55.4 °F 51.8 °F 88% 29.82 in 10.0 mi South 10.4 mph - N/A   Mostly Cloudy
8:35 PM 55.4 °F 53.6 °F 94% 29.82 in 10.0 mi SSE 9.2 mph - N/A   Overcast
8:55 PM 53.6 °F 53.6 °F 100% 29.82 in 10.0 mi South 8.1 mph - N/A   Scattered Clouds
9:15 PM 53.6 °F 53.6 °F 100% 29.82 in 10.0 mi South 5.8 mph - N/A   Mostly Cloudy
9:35 PM 55.4 °F 53.6 °F 94% 29.83 in 10.0 mi SSW 6.9 mph - N/A   Overcast
9:55 PM 53.6 °F 53.6 °F 100% 29.84 in 10.0 mi South 6.9 mph - N/A   Scattered Clouds
10:15 PM 53.6 °F 53.6 °F 100% 29.84 in 7.0 mi South 6.9 mph - N/A   Clear
10:35 PM 53.6 °F 51.8 °F 94% 29.84 in 10.0 mi South 5.8 mph - N/A   Clear
10:55 PM 51.8 °F 51.8 °F 100% 29.83 in 7.0 mi SSE 5.8 mph - N/A   Clear
11:15 PM 51.8 °F 51.8 °F 100% 29.82 in 7.0 mi South 5.8 mph - N/A   Clear
11:35 PM 51.8 °F 51.8 °F 100% 29.82 in 7.0 mi SSE 6.9 mph - N/A   Clear
11:55 PM 51.8 °F 51.8 °F 100% 29.81 in 7.0 mi South 6.9 mph - N/A   Clear